LEMUR-2-OZARAK (46908 NORAD) Tracking and Keplerian Element Data

This shows tracking and keplerian element data for the satellite.

Feedback or suggestion? Click here.




ElementValue
Catalog46908
NameLEMUR-2-OZARAK
Epoch Orbit281
Epoch Day331.1624041
Epoch Year2020
RAAN348.865
Inclination36.9058
Eccentricity0.0006728
Argument of Perigee122.8453
Mean Anonmoly237.2957
Mean Motion14.98820612
Decay Rate1.398E-05
L11 46908U 20081D 20331.16240410 .00001398 00000-0 11998-3 0 9997
L22 46908 36.9058 348.8650 0006728 122.8453 237.2957 14.98820612 2819

Live tracking and technical data element details for LEMUR-2-OZARAK (NORAD 46908). LEMUR-2-OZARAK can be tracked NOW for your location showing map with azimuth and elevation plus other details from your city location.

Track the satellite on the map from your city or location and see movement details for azimuth, elevation, latitude, longitude, range, height, and movement on the map or in text.







IsCatalogInMostPopularTable: catalog: 46908, numindb: 4
Update: records affected: 1



GetName: 46908 LEMUR-2-OZARAK

Hit Count: updated at: Thu, 26 Nov 2020 21:37:14 GMT